TimeEST,TemperatureF,Dew PointF,Humidity,Sea Level PressureIn,VisibilityMPH,Wind Direction,Wind SpeedMPH,Gust SpeedMPH,PrecipitationIn,Events,Conditions,WindDirDegrees,DateUTC
12:53 AM,19.0,3.9,52,30.17,10.0,North,8.1,-,N/A,,Clear,350,2013-12-31 05:53:00
1:53 AM,18.0,3.9,54,30.18,10.0,North,4.6,-,N/A,,Clear,350,2013-12-31 06:53:00
2:53 AM,17.1,6.1,62,30.18,10.0,NNE,6.9,-,N/A,,Clear,20,2013-12-31 07:53:00
3:53 AM,18.0,7.0,62,30.17,10.0,NNW,3.5,-,N/A,,Clear,340,2013-12-31 08:53:00
4:53 AM,19.0,7.0,59,30.17,10.0,North,4.6,-,N/A,,Clear,10,2013-12-31 09:53:00
5:53 AM,17.1,7.0,65,30.16,10.0,NE,4.6,-,N/A,,Scattered Clouds,40,2013-12-31 10:53:00
6:53 AM,17.1,7.0,65,30.15,10.0,NNE,6.9,-,N/A,,Partly Cloudy,20,2013-12-31 11:53:00
7:53 AM,18.0,8.1,65,30.16,10.0,Calm,Calm,-,N/A,,Scattered Clouds,0,2013-12-31 12:53:00
8:53 AM,19.9,5.0,52,30.16,10.0,Calm,Calm,-,N/A,,Scattered Clouds,0,2013-12-31 13:53:00
9:53 AM,19.9,6.1,55,30.15,10.0,Calm,Calm,-,N/A,,Scattered Clouds,0,2013-12-31 14:53:00
10:53 AM,21.9,7.0,53,30.13,10.0,Calm,Calm,-,N/A,,Scattered Clouds,0,2013-12-31 15:53:00
11:53 AM,25.0,10.9,55,30.11,10.0,Variable,5.8,-,N/A,,Mostly Cloudy,0,2013-12-31 16:53:00
12:53 PM,27.0,14.0,58,30.08,10.0,WSW,9.2,-,N/A,,Mostly Cloudy,240,2013-12-31 17:53:00
1:53 PM,28.0,16.0,61,30.07,10.0,SSW,5.8,-,N/A,,Mostly Cloudy,210,2013-12-31 18:53:00
2:53 PM,28.9,17.1,61,30.07,10.0,WSW,10.4,-,N/A,,Overcast,250,2013-12-31 19:53:00
3:53 PM,30.9,16.0,54,30.09,10.0,WSW,10.4,17.3,N/A,,Mostly Cloudy,250,2013-12-31 20:53:00
4:53 PM,30.9,18.0,59,30.10,10.0,West,8.1,17.3,N/A,,Scattered Clouds,260,2013-12-31 21:53:00
5:53 PM,30.9,19.0,61,30.09,10.0,West,5.8,-,N/A,,Clear,260,2013-12-31 22:53:00
6:53 PM,30.9,19.9,64,30.13,10.0,West,6.9,18.4,0.00,,Scattered Clouds,260,2013-12-31 23:53:00
7:53 PM,30.0,19.9,66,30.17,10.0,West,9.2,-,N/A,,Clear,260,2014-01-01 00:53:00
8:53 PM,30.0,17.1,59,30.19,10.0,West,6.9,16.1,N/A,,Clear,270,2014-01-01 01:53:00
9:53 PM,28.9,10.9,47,30.21,10.0,West,10.4,20.7,N/A,,Clear,280,2014-01-01 02:53:00
10:53 PM,28.0,9.0,45,30.22,10.0,West,10.4,-,N/A,,Clear,280,2014-01-01 03:53:00
11:53 PM,27.0,8.1,45,30.25,10.0,WNW,8.1,-,N/A,,Clear,290,2014-01-01 04:53:00